owner,sensor,date,latitude,longitude,vertical_datum,wind_speed,wind_to_direction,wind_speed_of_gust,qcFlag 
COMPS,ioos:station:USF.COMPS:FHP:1,2015-10-01T00:00:00Z,28.1530,-82.8010,10.0,4.61,312.52,5.48,'1111122,1111122,1111122' 
COMPS,ioos:station:USF.COMPS:FHP:1,2015-10-01T00:06:00Z,28.1530,-82.8010,10.0,4.6,305.92,5.48,'1111122,1111122,1111122' 
COMPS,ioos:station:USF.COMPS:FHP:1,2015-10-01T00:12:00Z,28.1530,-82.8010,10.0,4.25,313.58,5.09,'1111122,1111122,1111122' 
COMPS,ioos:station:USF.COMPS:FHP:1,2015-10-01T00:18:00Z,28.1530,-82.8010,10.0,4.16,311.05,5.19,'1111122,1111122,1111122' 
COMPS,ioos:station:USF.COMPS:FHP:1,2015-10-01T00:24:00Z,28.1530,-82.8010,10.0,4.0,311.59,4.9,'1111122,1111122,1111122' 
COMPS,ioos:station:USF.COMPS:FHP:1,2015-10-01T00:30:00Z,28.1530,-82.8010,10.0,4.05,318.29,4.99,'1111122,1111122,1111122' 
COMPS,ioos:station:USF.COMPS:FHP:1,2015-10-01T00:36:00Z,28.1530,-82.8010,10.0,4.09,317.36,5.19,'1111122,1111122,1111122' 
COMPS,ioos:station:USF.COMPS:FHP:1,2015-10-01T00:42:00Z,28.1530,-82.8010,10.0,3.71,309.23,4.7,'1111122,1111122,1111122' 
COMPS,ioos:station:USF.COMPS:FHP:1,2015-10-01T00:48:00Z,28.1530,-82.8010,10.0,4.0,317.03,4.8,'1111122,1111122,1111122' 
COMPS,ioos:station:USF.COMPS:FHP:1,2015-10-01T00:54:00Z,28.1530,-82.8010,10.0,3.18,310.36,3.92,'1111122,1111122,1111122' 
COMPS,ioos:station:USF.COMPS:FHP:1,2015-10-01T01:00:00Z,28.1530,-82.8010,10.0,2.83,306.72,3.72,'1111122,1111122,1111122' 
COMPS,ioos:station:USF.COMPS:FHP:1,2015-10-01T01:06:00Z,28.1530,-82.8010,10.0,3.22,306.66,3.92,'1111122,1111122,1111122' 
COMPS,ioos:station:USF.COMPS:FHP:1,2015-10-01T01:12:00Z,28.1530,-82.8010,10.0,2.9,308.54,3.62,'1111122,1111122,1111122' 
COMPS,ioos:station:USF.COMPS:FHP:1,2015-10-01T01:18:00Z,28.1530,-82.8010,10.0,3.14,311.12,4.7,'1111122,1111122,1111122' 
COMPS,ioos:station:USF.COMPS:FHP:1,2015-10-01T01:24:00Z,28.1530,-82.8010,10.0,3.94,312.96,4.8,'1111122,1111122,1111122' 
COMPS,ioos:station:USF.COMPS:FHP:1,2015-10-01T01:30:00Z,28.1530,-82.8010,10.0,3.75,306.61,4.9,'1111122,1111122,1111122' 
COMPS,ioos:station:USF.COMPS:FHP:1,2015-10-01T01:36:00Z,28.1530,-82.8010,10.0,3.57,310.27,4.5,'1111122,1111122,1111122' 
COMPS,ioos:station:USF.COMPS:FHP:1,2015-10-01T01:42:00Z,28.1530,-82.8010,10.0,3.75,309.17,4.5,'1111122,1111122,1111122' 
COMPS,ioos:station:USF.COMPS:FHP:1,2015-10-01T01:48:00Z,28.1530,-82.8010,10.0,4.35,310.14,5.09,'1111122,1111122,1111122' 
COMPS,ioos:station:USF.COMPS:FHP:1,2015-10-01T01:54:00Z,28.1530,-82.8010,10.0,4.16,310.58,5.09,'1111122,1111122,1111122' 
COMPS,ioos:station:USF.COMPS:FHP:1,2015-10-01T03:00:00Z,28.1530,-82.8010,10.0,4.8,319.75,6.17,'1111122,1111122,1111122' 
COMPS,ioos:station:USF.COMPS:FHP:1,2015-10-01T03:06:00Z,28.1530,-82.8010,10.0,5.39,326.67,6.37,'1111122,1111122,1111122' 
COMPS,ioos:station:USF.COMPS:FHP:1,2015-10-01T03:12:00Z,28.1530,-82.8010,10.0,4.96,326.24,6.17,'1111122,1111122,1111122' 
COMPS,ioos:station:USF.COMPS:FHP:1,2015-10-01T03:18:00Z,28.1530,-82.8010,10.0,4.33,330.53,5.09,'1111122,1111122,1111122' 
COMPS,ioos:station:USF.COMPS:FHP:1,2015-10-01T03:24:00Z,28.1530,-82.8010,10.0,4.04,326.23,4.8,'1111122,1111122,1111122' 
COMPS,ioos:station:USF.COMPS:FHP:1,2015-10-01T03:30:00Z,28.1530,-82.8010,10.0,3.87,335.46,4.31,'1111122,1111122,1111122' 
COMPS,ioos:station:USF.COMPS:FHP:1,2015-10-01T03:36:00Z,28.1530,-82.8010,10.0,4.3,339.93,4.9,'1111122,1111122,1111122' 
COMPS,ioos:station:USF.COMPS:FHP:1,2015-10-01T03:42:00Z,28.1530,-82.8010,10.0,4.41,334.65,4.9,'1111122,1111122,1111122' 
COMPS,ioos:station:USF.COMPS:FHP:1,2015-10-01T03:48:00Z,28.1530,-82.8010,10.0,4.16,335.82,4.6,'1111122,1111122,1111122' 
COMPS,ioos:station:USF.COMPS:FHP:1,2015-10-01T03:54:00Z,28.1530,-82.8010,10.0,4.14,323.02,4.8,'1111122,1111122,1111122' 
COMPS,ioos:station:USF.COMPS:FHP:1,2015-10-01T04:00:00Z,28.1530,-82.8010,10.0,4.39,323.66,4.99,'1111122,1111122,1111122' 
COMPS,ioos:station:USF.COMPS:FHP:1,2015-10-01T04:06:00Z,28.1530,-82.8010,10.0,4.41,326.77,4.99,'1111122,1111122,1111122' 
COMPS,ioos:station:USF.COMPS:FHP:1,2015-10-01T04:12:00Z,28.1530,-82.8010,10.0,4.44,327.57,5.48,'1111122,1111122,1111122' 
COMPS,ioos:station:USF.COMPS:FHP:1,2015-10-01T04:18:00Z,28.1530,-82.8010,10.0,5.03,327.72,5.58,'1111122,1111122,1111122' 
COMPS,ioos:station:USF.COMPS:FHP:1,2015-10-01T04:24:00Z,28.1530,-82.8010,10.0,4.73,333.05,5.48,'1111122,1111122,1111122' 
COMPS,ioos:station:USF.COMPS:FHP:1,2015-10-01T04:30:00Z,28.1530,-82.8010,10.0,4.94,331.82,5.97,'1111122,1111122,1111122' 
COMPS,ioos:station:USF.COMPS:FHP:1,2015-10-01T04:36:00Z,28.1530,-82.8010,10.0,5.62,333.38,6.66,'1111122,1111122,1111122' 
COMPS,ioos:station:USF.COMPS:FHP:1,2015-10-01T04:42:00Z,28.1530,-82.8010,10.0,5.75,327.54,6.46,'1111122,1111122,1111122' 
COMPS,ioos:station:USF.COMPS:FHP:1,2015-10-01T04:48:00Z,28.1530,-82.8010,10.0,6.13,331.58,7.05,'1111122,1111122,1111122' 
COMPS,ioos:station:USF.COMPS:FHP:1,2015-10-01T04:54:00Z,28.1530,-82.8010,10.0,6.36,332.74,7.15,'1111122,1111122,1111122' 
COMPS,ioos:station:USF.COMPS:FHP:1,2015-10-01T05:00:00Z,28.1530,-82.8010,10.0,6.35,331.05,7.44,'1111122,1111122,1111122' 
COMPS,ioos:station:USF.COMPS:FHP:1,2015-10-01T05:06:00Z,28.1530,-82.8010,10.0,6.11,330.37,7.35,'1111122,1111122,1111122' 
COMPS,ioos:station:USF.COMPS:FHP:1,2015-10-01T05:12:00Z,28.1530,-82.8010,10.0,6.43,323.94,7.44,'1111122,1111122,1111122' 
COMPS,ioos:station:USF.COMPS:FHP:1,2015-10-01T05:18:00Z,28.1530,-82.8010,10.0,6.77,324.31,7.83,'1111122,1111122,1111122' 
COMPS,ioos:station:USF.COMPS:FHP:1,2015-10-01T05:24:00Z,28.1530,-82.8010,10.0,6.44,330.47,7.83,'1111122,1111122,1111122' 
COMPS,ioos:station:USF.COMPS:FHP:1,2015-10-01T05:30:00Z,28.1530,-82.8010,10.0,6.14,333.07,7.15,'1111122,1111122,1111122' 
COMPS,ioos:station:USF.COMPS:FHP:1,2015-10-01T05:36:00Z,28.1530,-82.8010,10.0,5.95,335.57,6.76,'1111122,1111122,1111122' 
COMPS,ioos:station:USF.COMPS:FHP:1,2015-10-01T05:42:00Z,28.1530,-82.8010,10.0,5.94,330.77,6.95,'1111122,1111122,1111122' 
COMPS,ioos:station:USF.COMPS:FHP:1,2015-10-01T05:48:00Z,28.1530,-82.8010,10.0,5.72,332.72,6.76,'1111122,1111122,1111122' 
COMPS,ioos:station:USF.COMPS:FHP:1,2015-10-01T05:54:00Z,28.1530,-82.8010,10.0,6.26,332.97,7.25,'1111122,1111122,1111122' 
COMPS,ioos:station:USF.COMPS:FHP:1,2015-10-01T06:00:00Z,28.1530,-82.8010,10.0,6.13,333.76,6.85,'1111122,1111122,1111122' 
COMPS,ioos:station:USF.COMPS:FHP:1,2015-10-01T06:06:00Z,28.1530,-82.8010,10.0,5.71,336.59,6.56,'1111122,1111122,1111122' 
COMPS,ioos:station:USF.COMPS:FHP:1,2015-10-01T06:12:00Z,28.1530,-82.8010,10.0,5.25,338.51,6.27,'1111122,1111122,1111122' 
COMPS,ioos:station:USF.COMPS:FHP:1,2015-10-01T06:18:00Z,28.1530,-82.8010,10.0,5.11,339.0,5.87,'1111122,1111122,1111122' 
COMPS,ioos:station:USF.COMPS:FHP:1,2015-10-01T06:24:00Z,28.1530,-82.8010,10.0,5.5,334.26,6.46,'1111122,1111122,1111122' 
COMPS,ioos:station:USF.COMPS:FHP:1,2015-10-01T06:30:00Z,28.1530,-82.8010,10.0,5.36,335.17,6.17,'1111122,1111122,1111122' 
COMPS,ioos:station:USF.COMPS:FHP:1,2015-10-01T06:36:00Z,28.1530,-82.8010,10.0,5.65,331.12,6.76,'1111122,1111122,1111122' 
COMPS,ioos:station:USF.COMPS:FHP:1,2015-10-01T06:42:00Z,28.1530,-82.8010,10.0,5.4,338.1,6.17,'1111122,1111122,1111122' 
COMPS,ioos:station:USF.COMPS:FHP:1,2015-10-01T06:48:00Z,28.1530,-82.8010,10.0,5.18,340.02,6.07,'1111122,1111122,1111122' 
COMPS,ioos:station:USF.COMPS:FHP:1,2015-10-01T06:54:00Z,28.1530,-82.8010,10.0,5.38,342.07,6.17,'1111122,1111122,1111122' 
COMPS,ioos:station:USF.COMPS:FHP:1,2015-10-01T07:00:00Z,28.1530,-82.8010,10.0,5.73,340.3,6.76,'1111122,1111122,1111122' 
COMPS,ioos:station:USF.COMPS:FHP:1,2015-10-01T07:06:00Z,28.1530,-82.8010,10.0,5.55,339.88,6.37,'1111122,1111122,1111122' 
COMPS,ioos:station:USF.COMPS:FHP:1,2015-10-01T07:12:00Z,28.1530,-82.8010,10.0,5.89,336.91,7.05,'1111122,1111122,1111122' 
COMPS,ioos:station:USF.COMPS:FHP:1,2015-10-01T07:18:00Z,28.1530,-82.8010,10.0,5.92,337.65,6.76,'1111122,1111122,1111122' 
COMPS,ioos:station:USF.COMPS:FHP:1,2015-10-01T07:24:00Z,28.1530,-82.8010,10.0,5.83,340.62,7.15,'1111122,1111122,1111122' 
COMPS,ioos:station:USF.COMPS:FHP:1,2015-10-01T07:30:00Z,28.1530,-82.8010,10.0,6.23,337.76,7.44,'1111122,1111122,1111122' 
COMPS,ioos:station:USF.COMPS:FHP:1,2015-10-01T07:36:00Z,28.1530,-82.8010,10.0,5.93,339.6,6.85,'1111122,1111122,1111122' 
COMPS,ioos:station:USF.COMPS:FHP:1,2015-10-01T07:42:00Z,28.1530,-82.8010,10.0,6.01,337.84,6.95,'1111122,1111122,1111122' 
COMPS,ioos:station:USF.COMPS:FHP:1,2015-10-01T07:48:00Z,28.1530,-82.8010,10.0,6.06,331.97,6.85,'1111122,1111122,1111122' 
COMPS,ioos:station:USF.COMPS:FHP:1,2015-10-01T07:54:00Z,28.1530,-82.8010,10.0,6.2,332.83,7.05,'1111122,1111122,1111122' 
COMPS,ioos:station:USF.COMPS:FHP:1,2015-10-01T08:00:00Z,28.1530,-82.8010,10.0,5.68,336.03,6.76,'1111122,1111122,1111122' 
COMPS,ioos:station:USF.COMPS:FHP:1,2015-10-01T08:06:00Z,28.1530,-82.8010,10.0,5.6,341.06,6.46,'1111122,1111122,1111122' 
COMPS,ioos:station:USF.COMPS:FHP:1,2015-10-01T08:12:00Z,28.1530,-82.8010,10.0,5.7,340.25,6.56,'1111122,1111122,1111122' 
COMPS,ioos:station:USF.COMPS:FHP:1,2015-10-01T08:18:00Z,28.1530,-82.8010,10.0,5.48,332.25,6.37,'1111122,1111122,1111122' 
COMPS,ioos:station:USF.COMPS:FHP:1,2015-10-01T08:24:00Z,28.1530,-82.8010,10.0,6.28,332.28,6.95,'1111122,1111122,1111122' 
COMPS,ioos:station:USF.COMPS:FHP:1,2015-10-01T08:30:00Z,28.1530,-82.8010,10.0,6.0,334.49,6.85,'1111122,1111122,1111122' 
COMPS,ioos:station:USF.COMPS:FHP:1,2015-10-01T08:36:00Z,28.1530,-82.8010,10.0,6.64,335.3,7.74,'1111122,1111122,1111122' 
COMPS,ioos:station:USF.COMPS:FHP:1,2015-10-01T08:42:00Z,28.1530,-82.8010,10.0,5.82,336.07,6.66,'1111122,1111122,1111122' 
COMPS,ioos:station:USF.COMPS:FHP:1,2015-10-01T08:48:00Z,28.1530,-82.8010,10.0,5.44,332.86,6.07,'1111122,1111122,1111122' 
COMPS,ioos:station:USF.COMPS:FHP:1,2015-10-01T08:54:00Z,28.1530,-82.8010,10.0,6.61,339.56,7.64,'1111122,1111122,1111122' 
COMPS,ioos:station:USF.COMPS:FHP:1,2015-10-01T09:00:00Z,28.1530,-82.8010,10.0,6.65,340.42,7.74,'1111122,1111122,1111122' 
COMPS,ioos:station:USF.COMPS:FHP:1,2015-10-01T09:06:00Z,28.1530,-82.8010,10.0,6.06,335.74,7.15,'1111122,1111122,1111122' 
COMPS,ioos:station:USF.COMPS:FHP:1,2015-10-01T09:12:00Z,28.1530,-82.8010,10.0,6.21,338.22,6.95,'1111122,1111122,1111122' 
COMPS,ioos:station:USF.COMPS:FHP:1,2015-10-01T09:18:00Z,28.1530,-82.8010,10.0,6.39,337.5,7.44,'1111122,1111122,1111122' 
COMPS,ioos:station:USF.COMPS:FHP:1,2015-10-01T09:24:00Z,28.1530,-82.8010,10.0,6.24,340.92,7.25,'1111122,1111122,1111122' 
COMPS,ioos:station:USF.COMPS:FHP:1,2015-10-01T09:30:00Z,28.1530,-82.8010,10.0,6.66,343.39,7.64,'1111122,1111122,1111122' 
COMPS,ioos:station:USF.COMPS:FHP:1,2015-10-01T09:36:00Z,28.1530,-82.8010,10.0,6.85,343.05,8.03,'1111122,1111122,1111122' 
COMPS,ioos:station:USF.COMPS:FHP:1,2015-10-01T09:42:00Z,28.1530,-82.8010,10.0,6.73,347.46,7.83,'1111122,1111122,1111122' 
COMPS,ioos:station:USF.COMPS:FHP:1,2015-10-01T09:48:00Z,28.1530,-82.8010,10.0,6.46,343.55,7.15,'1111122,1111122,1111122' 
COMPS,ioos:station:USF.COMPS:FHP:1,2015-10-01T09:54:00Z,28.1530,-82.8010,10.0,6.5,348.4,7.64,'1111122,1111122,1111122' 
COMPS,ioos:station:USF.COMPS:FHP:1,2015-10-01T10:00:00Z,28.1530,-82.8010,10.0,6.42,353.2,7.44,'1111122,1111122,1111122' 
COMPS,ioos:station:USF.COMPS:FHP:1,2015-10-01T10:06:00Z,28.1530,-82.8010,10.0,6.0,353.52,6.66,'1111122,1111122,1111122' 
COMPS,ioos:station:USF.COMPS:FHP:1,2015-10-01T10:12:00Z,28.1530,-82.8010,10.0,5.39,354.33,5.97,'1111122,1111122,1111122' 
COMPS,ioos:station:USF.COMPS:FHP:1,2015-10-01T10:18:00Z,28.1530,-82.8010,10.0,5.8,0.15,6.56,'1111122,1111122,1111122' 
COMPS,ioos:station:USF.COMPS:FHP:1,2015-10-01T10:24:00Z,28.1530,-82.8010,10.0,5.76,359.11,6.85,'1111122,1111122,1111122' 
COMPS,ioos:station:USF.COMPS:FHP:1,2015-10-01T10:30:00Z,28.1530,-82.8010,10.0,5.54,1.14,6.46,'1111122,1111122,1111122' 
COMPS,ioos:station:USF.COMPS:FHP:1,2015-10-01T10:36:00Z,28.1530,-82.8010,10.0,5.5,1.02,6.76,'1111122,1111122,1111122' 
COMPS,ioos:station:USF.COMPS:FHP:1,2015-10-01T10:42:00Z,28.1530,-82.8010,10.0,5.85,357.29,6.46,'1111122,1111122,1111122' 
COMPS,ioos:station:USF.COMPS:FHP:1,2015-10-01T10:48:00Z,28.1530,-82.8010,10.0,5.29,358.9,6.07,'1111122,1111122,1111122' 
COMPS,ioos:station:USF.COMPS:FHP:1,2015-10-01T10:54:00Z,28.1530,-82.8010,10.0,5.37,0.04,6.27,'1111122,1111122,1111122' 
COMPS,ioos:station:USF.COMPS:FHP:1,2015-10-01T11:00:00Z,28.1530,-82.8010,10.0,5.13,1.58,6.07,'1111122,1111122,1111122' 
COMPS,ioos:station:USF.COMPS:FHP:1,2015-10-01T11:06:00Z,28.1530,-82.8010,10.0,5.47,2.86,6.37,'1111122,1111122,1111122' 
COMPS,ioos:station:USF.COMPS:FHP:1,2015-10-01T11:12:00Z,28.1530,-82.8010,10.0,5.36,6.69,6.17,'1111122,1111122,1111122' 
COMPS,ioos:station:USF.COMPS:FHP:1,2015-10-01T11:18:00Z,28.1530,-82.8010,10.0,5.36,6.24,6.17,'1111122,1111122,1111122' 
COMPS,ioos:station:USF.COMPS:FHP:1,2015-10-01T11:24:00Z,28.1530,-82.8010,10.0,4.85,3.92,5.39,'1111122,1111122,1111122' 
COMPS,ioos:station:USF.COMPS:FHP:1,2015-10-01T11:30:00Z,28.1530,-82.8010,10.0,4.79,8.32,5.58,'1111122,1111122,1111122' 
COMPS,ioos:station:USF.COMPS:FHP:1,2015-10-01T11:36:00Z,28.1530,-82.8010,10.0,4.87,3.84,5.68,'1111122,1111122,1111122' 
COMPS,ioos:station:USF.COMPS:FHP:1,2015-10-01T11:42:00Z,28.1530,-82.8010,10.0,4.72,2.16,6.07,'1111122,1111122,1111122' 
COMPS,ioos:station:USF.COMPS:FHP:1,2015-10-01T11:48:00Z,28.1530,-82.8010,10.0,4.51,5.59,5.09,'1111122,1111122,1111122' 
COMPS,ioos:station:USF.COMPS:FHP:1,2015-10-01T11:54:00Z,28.1530,-82.8010,10.0,4.82,0.56,5.48,'1111122,1111122,1111122' 
COMPS,ioos:station:USF.COMPS:FHP:1,2015-10-01T12:00:00Z,28.1530,-82.8010,10.0,5.0,1.62,5.78,'1111122,1111122,1111122' 
COMPS,ioos:station:USF.COMPS:FHP:1,2015-10-01T12:06:00Z,28.1530,-82.8010,10.0,4.84,1.51,5.48,'1111122,1111122,1111122' 
COMPS,ioos:station:USF.COMPS:FHP:1,2015-10-01T12:12:00Z,28.1530,-82.8010,10.0,4.48,3.97,5.29,'1111122,1111122,1111122' 
COMPS,ioos:station:USF.COMPS:FHP:1,2015-10-01T12:18:00Z,28.1530,-82.8010,10.0,4.36,8.11,5.29,'1111122,1111122,1111122' 
COMPS,ioos:station:USF.COMPS:FHP:1,2015-10-01T12:24:00Z,28.1530,-82.8010,10.0,4.2,11.6,4.99,'1111122,1111122,1111122' 
COMPS,ioos:station:USF.COMPS:FHP:1,2015-10-01T12:30:00Z,28.1530,-82.8010,10.0,4.25,10.54,5.09,'1111122,1111122,1111122' 
COMPS,ioos:station:USF.COMPS:FHP:1,2015-10-01T12:36:00Z,28.1530,-82.8010,10.0,4.54,1.95,5.09,'1111122,1111122,1111122' 
COMPS,ioos:station:USF.COMPS:FHP:1,2015-10-01T12:42:00Z,28.1530,-82.8010,10.0,4.79,2.14,5.68,'1111122,1111122,1111122' 
COMPS,ioos:station:USF.COMPS:FHP:1,2015-10-01T12:48:00Z,28.1530,-82.8010,10.0,4.32,359.16,5.19,'1111122,1111122,1111122' 
COMPS,ioos:station:USF.COMPS:FHP:1,2015-10-01T12:54:00Z,28.1530,-82.8010,10.0,4.26,2.61,4.8,'1111122,1111122,1111122' 
COMPS,ioos:station:USF.COMPS:FHP:1,2015-10-01T13:00:00Z,28.1530,-82.8010,10.0,4.24,2.06,4.8,'1111122,1111122,1111122' 
COMPS,ioos:station:USF.COMPS:FHP:1,2015-10-01T13:06:00Z,28.1530,-82.8010,10.0,4.51,354.77,5.09,'1111122,1111122,1111122' 
COMPS,ioos:station:USF.COMPS:FHP:1,2015-10-01T13:12:00Z,28.1530,-82.8010,10.0,4.41,354.73,4.8,'1111122,1111122,1111122' 
COMPS,ioos:station:USF.COMPS:FHP:1,2015-10-01T13:18:00Z,28.1530,-82.8010,10.0,4.01,2.3,4.8,'1111122,1111122,1111122' 
COMPS,ioos:station:USF.COMPS:FHP:1,2015-10-01T13:24:00Z,28.1530,-82.8010,10.0,4.4,3.51,5.29,'1111122,1111122,1111122' 
COMPS,ioos:station:USF.COMPS:FHP:1,2015-10-01T13:30:00Z,28.1530,-82.8010,10.0,3.97,3.61,4.7,'1111122,1111122,1111122' 
COMPS,ioos:station:USF.COMPS:FHP:1,2015-10-01T13:36:00Z,28.1530,-82.8010,10.0,4.06,359.65,4.9,'1111122,1111122,1111122' 
COMPS,ioos:station:USF.COMPS:FHP:1,2015-10-01T13:42:00Z,28.1530,-82.8010,10.0,4.06,352.02,4.9,'1111122,1111122,1111122' 
COMPS,ioos:station:USF.COMPS:FHP:1,2015-10-01T13:48:00Z,28.1530,-82.8010,10.0,4.1,354.29,5.09,'1111122,1111122,1111122' 
COMPS,ioos:station:USF.COMPS:FHP:1,2015-10-01T13:54:00Z,28.1530,-82.8010,10.0,3.82,5.62,4.6,'1111122,1111122,1111122' 
COMPS,ioos:station:USF.COMPS:FHP:1,2015-10-01T14:00:00Z,28.1530,-82.8010,10.0,3.69,2.29,4.21,'1111122,1111122,1111122' 
COMPS,ioos:station:USF.COMPS:FHP:1,2015-10-01T14:06:00Z,28.1530,-82.8010,10.0,3.66,1.96,4.31,'1111122,1111122,1111122' 
COMPS,ioos:station:USF.COMPS:FHP:1,2015-10-01T14:12:00Z,28.1530,-82.8010,10.0,3.51,8.79,4.31,'1111122,1111122,1111122' 
COMPS,ioos:station:USF.COMPS:FHP:1,2015-10-01T14:18:00Z,28.1530,-82.8010,10.0,3.34,0.63,4.41,'1111122,1111122,1111122' 
COMPS,ioos:station:USF.COMPS:FHP:1,2015-10-01T14:24:00Z,28.1530,-82.8010,10.0,2.93,10.09,3.72,'1111122,1111122,1111122' 
COMPS,ioos:station:USF.COMPS:FHP:1,2015-10-01T14:30:00Z,28.1530,-82.8010,10.0,3.1,5.03,4.21,'1111122,1111122,1111122' 
COMPS,ioos:station:USF.COMPS:FHP:1,2015-10-01T14:36:00Z,28.1530,-82.8010,10.0,3.28,355.6,3.92,'1111122,1111122,1111122' 
COMPS,ioos:station:USF.COMPS:FHP:1,2015-10-01T14:42:00Z,28.1530,-82.8010,10.0,3.23,355.43,4.01,'1111122,1111122,1111122' 
COMPS,ioos:station:USF.COMPS:FHP:1,2015-10-01T14:48:00Z,28.1530,-82.8010,10.0,3.7,346.87,4.99,'1111122,1111122,1111122' 
COMPS,ioos:station:USF.COMPS:FHP:1,2015-10-01T14:54:00Z,28.1530,-82.8010,10.0,3.31,345.38,4.21,'1111122,1111122,1111122' 
COMPS,ioos:station:USF.COMPS:FHP:1,2015-10-01T15:00:00Z,28.1530,-82.8010,10.0,3.21,339.62,4.21,'1111122,1111122,1111122' 
COMPS,ioos:station:USF.COMPS:FHP:1,2015-10-01T15:06:00Z,28.1530,-82.8010,10.0,3.84,344.36,4.9,'1111122,1111122,1111122' 
COMPS,ioos:station:USF.COMPS:FHP:1,2015-10-01T15:12:00Z,28.1530,-82.8010,10.0,3.76,342.06,4.6,'1111122,1111122,1111122' 
COMPS,ioos:station:USF.COMPS:FHP:1,2015-10-01T15:18:00Z,28.1530,-82.8010,10.0,3.43,350.43,4.21,'1111122,1111122,1111122' 
COMPS,ioos:station:USF.COMPS:FHP:1,2015-10-01T15:24:00Z,28.1530,-82.8010,10.0,4.08,5.43,5.19,'1111122,1111122,1111122' 
COMPS,ioos:station:USF.COMPS:FHP:1,2015-10-01T15:30:00Z,28.1530,-82.8010,10.0,3.41,4.5,4.31,'1111122,1111122,1111122' 
COMPS,ioos:station:USF.COMPS:FHP:1,2015-10-01T15:36:00Z,28.1530,-82.8010,10.0,3.88,0.38,5.09,'1111122,1111122,1111122' 
COMPS,ioos:station:USF.COMPS:FHP:1,2015-10-01T15:42:00Z,28.1530,-82.8010,10.0,4.08,2.39,4.99,'1111122,1111122,1111122' 
COMPS,ioos:station:USF.COMPS:FHP:1,2015-10-01T15:48:00Z,28.1530,-82.8010,10.0,4.63,1.46,5.29,'1111122,1111122,1111122' 
COMPS,ioos:station:USF.COMPS:FHP:1,2015-10-01T15:54:00Z,28.1530,-82.8010,10.0,4.21,3.17,4.99,'1111122,1111122,1111122' 
COMPS,ioos:station:USF.COMPS:FHP:1,2015-10-01T16:00:00Z,28.1530,-82.8010,10.0,4.18,5.3,5.19,'1111122,1111122,1111122' 
COMPS,ioos:station:USF.COMPS:FHP:1,2015-10-01T16:06:00Z,28.1530,-82.8010,10.0,4.65,5.11,5.97,'1111122,1111122,1111122' 
COMPS,ioos:station:USF.COMPS:FHP:1,2015-10-01T16:12:00Z,28.1530,-82.8010,10.0,4.71,5.21,5.39,'1111122,1111122,1111122' 
COMPS,ioos:station:USF.COMPS:FHP:1,2015-10-01T16:18:00Z,28.1530,-82.8010,10.0,4.43,2.32,5.09,'1111122,1111122,1111122' 
COMPS,ioos:station:USF.COMPS:FHP:1,2015-10-01T16:24:00Z,28.1530,-82.8010,10.0,4.63,359.16,5.58,'1111122,1111122,1111122' 
COMPS,ioos:station:USF.COMPS:FHP:1,2015-10-01T16:30:00Z,28.1530,-82.8010,10.0,4.54,5.5,5.58,'1111122,1111122,1111122' 
COMPS,ioos:station:USF.COMPS:FHP:1,2015-10-01T16:36:00Z,28.1530,-82.8010,10.0,4.73,2.97,5.39,'1111122,1111122,1111122' 
COMPS,ioos:station:USF.COMPS:FHP:1,2015-10-01T16:42:00Z,28.1530,-82.8010,10.0,4.86,6.75,5.48,'1111122,1111122,1111122' 
COMPS,ioos:station:USF.COMPS:FHP:1,2015-10-01T16:48:00Z,28.1530,-82.8010,10.0,4.38,4.6,5.29,'1111122,1111122,1111122' 
COMPS,ioos:station:USF.COMPS:FHP:1,2015-10-01T16:54:00Z,28.1530,-82.8010,10.0,4.16,6.12,4.99,'1111122,1111122,1111122' 
COMPS,ioos:station:USF.COMPS:FHP:1,2015-10-01T17:00:00Z,28.1530,-82.8010,10.0,4.53,6.84,5.39,'1111122,1111122,1111122' 
COMPS,ioos:station:USF.COMPS:FHP:1,2015-10-01T17:06:00Z,28.1530,-82.8010,10.0,4.32,2.94,5.19,'1111122,1111122,1111122' 
COMPS,ioos:station:USF.COMPS:FHP:1,2015-10-01T17:12:00Z,28.1530,-82.8010,10.0,3.83,0.93,4.41,'1111122,1111122,1111122' 
COMPS,ioos:station:USF.COMPS:FHP:1,2015-10-01T17:18:00Z,28.1530,-82.8010,10.0,4.06,358.07,5.09,'1111122,1111122,1111122' 
COMPS,ioos:station:USF.COMPS:FHP:1,2015-10-01T17:24:00Z,28.1530,-82.8010,10.0,3.97,357.51,5.19,'1111122,1111122,1111122' 
COMPS,ioos:station:USF.COMPS:FHP:1,2015-10-01T17:30:00Z,28.1530,-82.8010,10.0,4.17,351.54,4.99,'1111122,1111122,1111122' 
COMPS,ioos:station:USF.COMPS:FHP:1,2015-10-01T17:36:00Z,28.1530,-82.8010,10.0,4.13,358.45,5.19,'1111122,1111122,1111122' 
COMPS,ioos:station:USF.COMPS:FHP:1,2015-10-01T17:42:00Z,28.1530,-82.8010,10.0,4.13,358.32,4.9,'1111122,1111122,1111122' 
COMPS,ioos:station:USF.COMPS:FHP:1,2015-10-01T17:48:00Z,28.1530,-82.8010,10.0,4.16,354.23,4.9,'1111122,1111122,1111122' 
COMPS,ioos:station:USF.COMPS:FHP:1,2015-10-01T17:54:00Z,28.1530,-82.8010,10.0,3.84,4.25,4.6,'1111122,1111122,1111122' 
COMPS,ioos:station:USF.COMPS:FHP:1,2015-10-01T18:00:00Z,28.1530,-82.8010,10.0,3.78,356.78,4.99,'1111122,1111122,1111122' 
COMPS,ioos:station:USF.COMPS:FHP:1,2015-10-01T18:06:00Z,28.1530,-82.8010,10.0,4.22,357.02,5.09,'1111122,1111122,1111122' 
COMPS,ioos:station:USF.COMPS:FHP:1,2015-10-01T18:12:00Z,28.1530,-82.8010,10.0,4.18,349.33,4.99,'1111122,1111122,1111122' 
COMPS,ioos:station:USF.COMPS:FHP:1,2015-10-01T18:18:00Z,28.1530,-82.8010,10.0,4.42,351.32,4.99,'1111122,1111122,1111122' 
COMPS,ioos:station:USF.COMPS:FHP:1,2015-10-01T18:24:00Z,28.1530,-82.8010,10.0,4.11,346.47,4.99,'1111122,1111122,1111122' 
COMPS,ioos:station:USF.COMPS:FHP:1,2015-10-01T18:30:00Z,28.1530,-82.8010,10.0,4.05,352.75,4.6,'1111122,1111122,1111122' 
COMPS,ioos:station:USF.COMPS:FHP:1,2015-10-01T18:36:00Z,28.1530,-82.8010,10.0,4.11,353.71,4.99,'1111122,1111122,1111122' 
COMPS,ioos:station:USF.COMPS:FHP:1,2015-10-01T18:42:00Z,28.1530,-82.8010,10.0,4.34,346.57,4.9,'1111122,1111122,1111122' 
COMPS,ioos:station:USF.COMPS:FHP:1,2015-10-01T18:48:00Z,28.1530,-82.8010,10.0,4.32,346.14,5.09,'1111122,1111122,1111122' 
COMPS,ioos:station:USF.COMPS:FHP:1,2015-10-01T18:54:00Z,28.1530,-82.8010,10.0,4.51,347.2,4.99,'1111122,1111122,1111122' 
COMPS,ioos:station:USF.COMPS:FHP:1,2015-10-01T19:00:00Z,28.1530,-82.8010,10.0,4.51,345.89,5.09,'1111122,1111122,1111122' 
COMPS,ioos:station:USF.COMPS:FHP:1,2015-10-01T19:06:00Z,28.1530,-82.8010,10.0,4.75,335.92,5.39,'1111122,1111122,1111122' 
COMPS,ioos:station:USF.COMPS:FHP:1,2015-10-01T19:12:00Z,28.1530,-82.8010,10.0,4.63,346.54,5.09,'1111122,1111122,1111122' 
COMPS,ioos:station:USF.COMPS:FHP:1,2015-10-01T19:18:00Z,28.1530,-82.8010,10.0,4.29,349.27,4.9,'1111122,1111122,1111122' 
COMPS,ioos:station:USF.COMPS:FHP:1,2015-10-01T19:24:00Z,28.1530,-82.8010,10.0,4.22,353.22,4.8,'1111122,1111122,1111122' 
COMPS,ioos:station:USF.COMPS:FHP:1,2015-10-01T19:30:00Z,28.1530,-82.8010,10.0,4.26,338.75,5.19,'1111122,1111122,1111122' 
COMPS,ioos:station:USF.COMPS:FHP:1,2015-10-01T19:36:00Z,28.1530,-82.8010,10.0,4.72,340.42,5.39,'1111122,1111122,1111122' 
COMPS,ioos:station:USF.COMPS:FHP:1,2015-10-01T19:42:00Z,28.1530,-82.8010,10.0,5.11,341.38,5.78,'1111122,1111122,1111122' 
COMPS,ioos:station:USF.COMPS:FHP:1,2015-10-01T19:48:00Z,28.1530,-82.8010,10.0,5.04,341.65,5.68,'1111122,1111122,1111122' 
COMPS,ioos:station:USF.COMPS:FHP:1,2015-10-01T19:54:00Z,28.1530,-82.8010,10.0,4.83,338.77,5.39,'1111122,1111122,1111122' 
COMPS,ioos:station:USF.COMPS:FHP:1,2015-10-01T20:00:00Z,28.1530,-82.8010,10.0,4.87,342.94,5.87,'1111122,1111122,1111122' 
COMPS,ioos:station:USF.COMPS:FHP:1,2015-10-01T20:06:00Z,28.1530,-82.8010,10.0,5.03,342.73,5.78,'1111122,1111122,1111122' 
COMPS,ioos:station:USF.COMPS:FHP:1,2015-10-01T20:12:00Z,28.1530,-82.8010,10.0,4.92,343.01,5.58,'1111122,1111122,1111122' 
COMPS,ioos:station:USF.COMPS:FHP:1,2015-10-01T20:18:00Z,28.1530,-82.8010,10.0,4.61,339.66,5.29,'1111122,1111122,1111122' 
COMPS,ioos:station:USF.COMPS:FHP:1,2015-10-01T20:24:00Z,28.1530,-82.8010,10.0,4.58,340.14,5.29,'1111122,1111122,1111122' 
COMPS,ioos:station:USF.COMPS:FHP:1,2015-10-01T20:30:00Z,28.1530,-82.8010,10.0,4.86,343.67,5.48,'1111122,1111122,1111122' 
COMPS,ioos:station:USF.COMPS:FHP:1,2015-10-01T20:36:00Z,28.1530,-82.8010,10.0,5.27,333.65,6.37,'1111122,1111122,1111122' 